sat.trackr.live / text

‹ back to catalog

STARLINK-31647

NORAD 59389 · 2024-062R

PAYLOAD ACTIVE UNKNOWN

§ Identity

Operator
Country
US
Launch date
2024-04-02
Launch site
AFWTR
Launch vehicle
Mass (kg)
RCS (m²)

Purposes: comms

External: N2YO · Heavens-Above · Gunter

§ Orbital elements

Epoch: 2026-09-20T00:19:21.150336Z

Period
93.85 min
Inclination
53.1605°
Eccentricity
0.0001223
Mean motion
15.34386104 rev/d
Perigee alt
461.9 km
Apogee alt
463.6 km
Semi-major
6,840.9 km
B*
1.1926e-5
RAAN
70.2190°
Arg perigee
92.8933°
Mean anomaly
267.2210°
Rev number
13,946

§ Raw data

STARLINK-316471 59389U 24062R   26263.01343924  .00000027  00000+0  11926-4 0  99942 59389  53.1605  70.2190 0001223  92.8933 267.2210 15.34386104139465

JSON: /api/v1/satellites/59389 · /tle

For live sub-satellite position, see the globe view (requires WebGL).

§ Visibility from observer

Set your observer location to see the next 7 days of passes ≥ 10°. The values pass through the URL so the page stays shareable.

No JS? Fill the form by hand. The geolocation button needs JavaScript.